Погода Петропавловск-Камч.

Хотите узнать прогноз погоды Петропавловск-Камч.? Тогда Вам сюда: Погода Петропавловск-Камч.

Поиск расширенной информации на нашем сайте:

Полезная информация:

Новости сайта



02.01.2020
Опубликован Долгосрочный прогноз погоды по городам России и ближнего зарубежья на январь 2020 года.
Карты: Прогноз на январь и февраль 2020 года, Сравнение прогнозируемой аномалии приземной температуры воздуха на январь 2020 года по разным моделям.




Погода Петропавловск-Камч. - сегодня

Время (UTC), дата Ветер
(°,м/с) 
Видим.   Явления Облачность Т
(°С)
Тd
(°С)
f(%) Тe
(°С)
Pmin
(гПа)
dP
(гПа)
Po
(мм)
O2
(г/м3)
Тmin Tmax R s Состояние
почвы
00 19.01.20 190 (Ю) 20000 м  туман на расстоянии  3/1 600 м верхняя 
[Sc|Ci fib]
-10 -12 85 -10  1013.5  0.7  758  318  -12.9         
03 19.01.20 тихо ()   20000 м  туман на расстоянии  1/1 600 м 
[Sc]
-9.2 -11.8 81 -9  1012.9  -0.6  757  317           
06 19.01.20 010 (С) 20000 м  туман на расстоянии  1/1 600 м 
[Sc]
-9.2 -11.5 83 -9  1012.3  -0.6  757  317           
09 19.01.20 350 (С) 20000 м    ясно 
-9.4 -13 75 -11  1012.3  757  317    -8.3       
12 19.01.20 330 (СЗ) 20000 м    ясно 
-9.5 -12.9 76 -11  1011.7  -0.6  756  317           
15 19.01.20 260 (З) 20000 м    ясно 
-11.1 -14 79 -11  1011.3  -0.5  756  319           
18 19.01.20 тихо ()   20000 м    1/0 верхняя 
[Ci fib]
-12.7 -15.1 82 -13  1010.5  -0.8  755  321           
21 19.01.20 120 (ЮВ) 20000 м    ясно 
-13.6 -16.5 79 -17  1010.7  0.2  756  322  -13.6      78  неравномерный
мокрый или
старый снег
100% 
00 20.01.20 340 (С) 20000 м    ясно 
-12.3 -15.6 76 -17  1010.8  0.1  756  320  -14         
03 20.01.20 280 (З) 20000 м    1/0 средняя 
[Ac trans]
-9.8 -14.2 70 -10  1009.1  -1.6  754  317           
06 20.01.20 290 (З) 20000 м    3/1 1000 м средняя 
[Sc|Ac trans]
-9.7 -13.6 73 -11  1008.6  -0.4  754  316           
09 20.01.20 360 (С) 20000 м    4/1 1000 м средняя 
[Sc|Ac trans]
-9.8 -13.8 73 -13  1008.7  0.1  754  316    -8.9       
12 20.01.20 340 (С) 20000 м    5/3 1000 м средняя, верхняя 
[Sc|Ac trans|Ci fib]
-9.3 -15 63 -11  1008.3  -0.4  754  316           
15 20.01.20 340 (С) 20000 м    8/3 1000 м средняя, верхняя 
[Sc|Ac trans|Ci fib]
-10.9 -15.2 71 -16  1007.8  -0.5  754  318           
18 20.01.20 340 (С) 20000 м    10/3 1000 м средняя 
[Sc|Ac trans]
-11.9 -15.5 75 -14  1007.2  -0.6  753  319           
21 20.01.20 010 (С) 20000 м    10/10 1000 м 
[Sc]
-13.7 -16.8 77 -14  1006.9  -0.3  753  321  -13.7      77  неравномерный
мокрый или
старый снег
100% 
00 21.01.20 320 (СЗ) 20000 м    10/10 600 м 
[Sc]
-12.7 -17 70 -17  1006.8  0.1  753  319           
03 21.01.20 340 (С) 20000 м    10/10 600 м 
[Sc]
-10.1 -15 67 -12  1005  -1.8  751  316           
06 21.01.20 320 (СЗ) 20000 м    5/3 1000 м средняя, верхняя 
[Sc|Ac trans|Ci fib]
-9.6 -13.9 71 -13  1004.2  -0.8  751  315           
09 21.01.20 230 (ЮЗ) 20000 м    8/0 средняя, верхняя 
[Ac trans|Ci fib]
-10 -13.5 76 -10  1004.3  0.1  751  315    -8.9       
12 21.01.20 360 (С) 20000 м    8/0 средняя, верхняя 
[Ac trans|Ci fib]
-11.4 -13.6 84 -15  1004.4  751  317           
15 21.01.20 350 (С) 20000 м    1/0 верхняя 
[Ci fib]
-10.8 -13.9 78 -15  1003.4  -1  750  316           
18 21.01.20 340 (С) 4{10}  20000 м    ясно 
-10.3 -13.9 75 -14  1003  -0.4  750  315           
21 21.01.20 360 (С) 20000 м    3/0 средняя, верхняя 
[Ac trans|Ci fib]
-10 -16.2 60 -14  1003.4  0.4  750  315  -11.4      77  неравномерный
мокрый или
старый снег
100% 
00 22.01.20 360 (С) 20000 м    3/0 верхняя 
[Ci fib]
-8.6 -17.1 50 -12  1004  0.6  751  314           
Время (UTC), дата Ветер
(°,м/с) 
Видим.   Явления Облачность Т
(°С)
Тd
(°С)
f(%) Тe
(°С)
Pmin
(гПа)
dP
(гПа)
Po
(мм)
O2
(г/м3)
Тmin Tmax R s Состояние
почвы

Для получения пояснительной информации подведите курсор к названию столбца.

ПОГОДА Петропавловск-Камч. - архив

Всё, что Вы хотите узнать о погоде Петропавловск-Камч. - удобно и подробно!

Выберите нужную дату (начиная с 1 января 2019* года) и нажмите кнопку "Найти".
Будут отображены архивные сводки погоды по пункту Петропавловск-Камч., начиная с указанной даты.


Отображать данные в формате CSV (для использования в таблицах Excel)


Внимание! Наш архив погоды предназначен исключительно для личного некоммерческого использования в познавательных целях. Если Вам необходимы официальные справки о состоянии погоды (для производственных, юридических, коммерческих и т.п. целей), обращайтесь в органы Росгидромета.

*Примечание: данная дата относится к архиву по метеостанциям СССР (Россия, СНГ, Балтия).
Архив по метеостанциям Зарубежной Европы и Азии (кроме Китая) хранится 10 дней, по другим регионам земного шара (Китай, Африка, Америка, Австралия, Океания) - 1 день.

Петропавловск-Камч. - район местоположения метеостанции


Название, широта, долгота, высота метеостанции:
Петропавловск-Камч. (обсерватория) 53°ш. 158.6°д. 24 м над ур. моря [Российская Федерация]

Дополнительная информация

В oтличие oт бoльшинства пoгoдных сайтoв мы публикуем пoдрoбную метеoинфoрмацию в детальнoм прoфессиoнальнoм фoрмате.

Характеристики температуры и влажнoсти вoздуха измеряются на высoте 2 м в тени вдали oт зданий и деревьев.
Скoрoсть ветра измеряется на высoте 10 м (на урoвне рoста челoвека скoрoсть ветра ниже в 1.5-2 раза). Если метеoстанция нахoдится в гoрoде или в лесу, тo скoрoсть ветра занижена на 2-4 м/с пo сравнению с oткрытым местoм. Скoрoсть ветра над акватoриями крупных рек и oзёр, а также на вершинах хoлмoв на 2-5 м/с выше, чем в oбычных услoвиях.
Атмoсфернoе давление в разных тoчках местнoсти мoжет значительнo oтличаться oт давления на метеoстанции, в зависимoсти oт услoвий рельефа (при пoдъёме на 10 м давление пoнижается примернo на 1 мм рт.ст.).